Flag for U.S.A. Weather past 2 weeks in Pasadena, California, U.S.A.

Now
70 °F

Clear.


Feels Like: 76 °F
Forecast: 57 / 75 °F
Wind: No wind

Location: Burbank-Glendale-Pasadena Airport

Current Time: Oct 25, 2014 at 9:57:51 PM

Latest Report: Oct 25, 2014 at 8:53 PM


Visibility: 10 mi

Pressure: 29.98 "Hg

Humidity: 59%

Dew point: 55 °F

Location of PasadenaLocation

Historic Weather in Pasadena — Graph

°F

Pasadena temperature yesterday

Maximum temperature yesterday: 89 °F (at 2:53 PM)
Minimum temperature yesterday: 58 °F (at 4:53 AM)
Average temperature yesterday: 73 °F

Past Weeks' High & Low Weather Summary

 TemperatureHumidityPressure
High89 °F (Oct 24, 2:53 PM)97% (Oct 13, 7:53 AM)30.02 "Hg (Oct 13, 7:53 AM)
Low56 °F (Oct 18, 6:53 AM)11% (Oct 24, 3:53 PM)29.80 "Hg (Oct 18, 4:53 PM)
Average68 °F62%29.91 "Hg
* Reported Oct 10 7:53 PM — Oct 25 7:53 PM, Pasadena, Weather by CustomWeather, © 2014

Note: Actual official high and low records may vary slightly from our data, if they occured in-between our weather recording intervals... More about our weather records

Advertising

Pasadena weather history for previous 24 hours

 ConditionsComfort  
Time TempWeatherWind HumidityBarometerVisibility
7:53 PM
Oct 25
70 °FClear.3 mph64%29.97 "Hg10 mi
6:53 PM73 °FSunny.8 mph43%29.95 "Hg10 mi
5:53 PM75 °FSunny.7 mph33%29.94 "Hg10 mi
4:53 PM78 °FSunny.8 mph29%29.96 "Hg10 mi
3:53 PM79 °FSunny.8 mph32%29.96 "Hg10 mi
2:53 PM82 °FPassing clouds.8 mph26%29.97 "Hg10 mi
1:53 PM81 °FScattered clouds.5 mph22%29.98 "Hg10 mi
12:53 PM79 °FOvercast.5 mph22%30.01 "Hg10 mi
11:53 AM78 °FPartly sunny.7 mph27%30.02 "Hg10 mi
10:53 AM76 °FSunny.6 mph31%30.02 "Hg10 mi
9:53 AM71 °FScattered clouds.No wind36%30.02 "Hg10 mi
8:53 AM66 °FSunny.No wind42%30.01 "Hg10 mi
7:53 AM60 °FPassing clouds.No wind56%29.99 "Hg10 mi
6:53 AM60 °FPassing clouds.6 mph58%29.98 "Hg10 mi
5:53 AM60 °FClear.3 mph60%29.96 "Hg10 mi
4:53 AM60 °FClear.No wind65%29.96 "Hg10 mi
3:53 AM62 °FClear.5 mph56%29.94 "Hg10 mi
2:53 AM62 °FClear.6 mph62%29.96 "Hg10 mi
1:53 AM64 °FClear.No wind70%29.98 "Hg10 mi
12:53 AM67 °FClear.3 mph63%29.98 "Hg10 mi
11:53 PM
Oct 24
69 °FClear.3 mph66%29.98 "Hg10 mi
10:53 PM71 °FClear.No wind63%29.96 "Hg10 mi
9:53 PM74 °FClear.5 mph48%29.95 "Hg10 mi
Weather by CustomWeather, © 2014

See weather overviewHow to use our weather pages